Regional Weather Roundup
Issued by NWS

Home | Current Version | Previous Version | Graphics & Text | Print | Product List | Glossary Off
Versions: 1 2 3 4 5 6 7 8 9 10 11 12 13 14 15 16 17 18 19 20 21 22 23 24 25 26 27 28 29 30 31 32 33 34 35 36 37 38 39 40 41 42 43 44 45 46 47 48 49 50

000
ASUS43 KOAX 032210
RWRNE

WEATHER ROUNDUP FOR NEBRASKA
NATIONAL WEATHER SERVICE OMAHA NE
500 PM CDT TUE MAY 03 2016

NOTES: SATELLITE DATA IS BEING USED TO AUGMENT CLOUD COVER ABOVE
       12000 FEET.
       "FAIR" INDICATES FEW OR NO CLOUDS BELOW 12,000 FEET WITH NO
       SIGNIFICANT WEATHER AND/OR OBSTRUCTIONS TO VISIBILITY.

  * THESE STATIONS DO NOT REPORT WEATHER SUCH AS RAIN...SNOW OR FOG.

NEZ001>004-019>022-054>056-032300-
NEBRASKA PANHANDLE

CITY           SKY/WX    TMP DP  RH WIND       PRES   REMARKS
SCOTTSBLUFF    SUNNY     73  36  25 N10       30.11F
ALLIANCE       SUNNY     69  33  26 N20G25    30.10F
CHADRON        SUNNY     73  37  27 NE9       30.08F
KIMBALL        SUNNY     68  35  29 N20       30.15F
SIDNEY         SUNNY     69  26  20 N20G26    30.13S
$$

NEZ057>060-069>072-079>082-032300-
SOUTHWEST NEBRASKA

CITY           SKY/WX    TMP DP  RH WIND       PRES   REMARKS
NORTH PLATTE   SUNNY     69  39  33 NW13G18   30.04F
IMPERIAL       SUNNY     68  36  30 N13G21    30.08F
LEXINGTON      SUNNY     67  41  38 NW13      30.04S
MCCOOK         SUNNY     68  41  37 N14       30.05F
OGALLALA       SUNNY     69  33  26 NW13      30.07F
$$

NEZ005>010-023>029-035>040-094-032300-
NORTH CENTRAL NEBRASKA

CITY           SKY/WX    TMP DP  RH WIND       PRES   REMARKS
VALENTINE      SUNNY     72  35  25 N16G26    30.02F
AINSWORTH      SUNNY     69  33  26 NW16      30.01F
BROKEN BOW     SUNNY     69  40  34 NW12G24   30.01F
O`NEILL        SUNNY     70  37  30 NW15G24   29.98F
ORD            SUNNY     69  41  36 W14G22    29.98F
THEDFORD       SUNNY     70  38  30 N10       30.04F
$$

NEZ041-046>049-061>064-073>077-083>087-032300-
SOUTH CENTRAL NEBRASKA

CITY           SKY/WX    TMP DP  RH WIND       PRES   REMARKS
GRAND ISLAND   MOSUNNY   68  40  35 NW17      30.01F
AURORA         MOSUNNY   68  37  32 NW13      30.00S
HASTINGS       MOSUNNY   68  40  35 W9        30.01F
HEBRON         MOSUNNY   69  38  32 CALM      29.99F
HOLDREGE       SUNNY     66  38  35 W7        30.03F
KEARNEY *      MOSUNNY   68  39  34 NW13      30.03F
YORK           MOSUNNY   68  39  34 NW14G20   29.99F
$$

NEZ011>018-030>034-042>045-032300-
NORTHEAST NEBRASKA

CITY           SKY/WX    TMP DP  RH WIND       PRES   REMARKS
NORFOLK        SUNNY     69  41  36 W16G24    29.94F
ALBION         SUNNY     69  40  35 NW14G20   29.96F
BLAIR          MOSUNNY   68  42  38 W8        29.93F
COLUMBUS *     MOSUNNY   70  39  32 W12       29.96F
FREMONT        MOSUNNY   69  42  36 W15G22    29.94F
TEKAMAH        MOSUNNY   70  44  39 NW15      29.91F
WAYNE          MOSUNNY   69  45  40 W15G25    29.93F
$$

NEZ050>053-065>068-078-088>093-032300-
SOUTHEAST NEBRASKA

CITY           SKY/WX    TMP DP  RH WIND       PRES   REMARKS
LINCOLN        MOSUNNY   71  39  31 NW14G21   29.97F
OMAHA EPPLEY   PTSUNNY   71  41  33 W20       29.93F
BEATRICE       MOSUNNY   69  40  34 NW7       29.98F
FALLS CITY     MOSUNNY   70  42  36 W10       29.96F
NEBRASKA CITY  MOSUNNY   69  40  34 W13G18    29.96F
PLATTSMOUTH    MOSUNNY   71  41  33 W14       29.94F
$$

NEZ044-045-051>053-067-032300-
OMAHA AREA

CITY           SKY/WX    TMP DP  RH WIND       PRES   REMARKS
OMAHA EPPLEY   PTSUNNY   71  41  33 W20       29.93F
BLAIR          MOSUNNY   68  42  38 W8        29.93F
FREMONT        MOSUNNY   69  42  36 W15G22    29.94F
MILLARD        PTSUNNY   70  43  37 W13G22    29.94F
OFFUTT AFB     PTSUNNY   71  42  34 W15       29.93F
PLATTSMOUTH    MOSUNNY   71  41  33 W14       29.94F
WAHOO          FAIR      70  42  36 W14       29.95F
$$




USA.gov is the U.S. government's official web portal to all federal, state and local government web resources and services.